Find Starlink 35448

NORAD ID: 66465 Int'l Des: 2025-262 Owner: SPXS Country: US Constellation: starlink operational
LEOCIRCULAR

实时位置

正在加载3D地球...

关于 Starlink 35448

正在加载描述...

即将过境

Passes for default location (London). Set your location on the main map for personalized predictions.

高度历史

Loading altitude history...

两行轨道根数

1 66465U 25262K 26107.26609669 .00008051 00000-0 30163-3 0 9994
2 66465 43.0001 78.5274 0001373 265.3308 94.7387 15.27596626 24802
Epoch: Apr 17, 2026 • Age: 9 hours

当前状态

高度 489.4 km
速度 7.62 km/s
星下点 -27.63°S, 143.41°W
发射日期 Nov 15, 2025
运行时间 0.4 years
类型 internet

技术详情

分类 Payload
质量 575.00 kg
干质量 530.00 kg
总质量 575.00 kg
长度 0.30 m
直径 4.10 m
跨度 29.00 m
形状 Box + pan
制造商 SPXS
平台类型 Starlink V2MO
阶段状态 In Orbit
所有者/国家 SPXS/US

Most Searched